Other Public Products
Issued by NWS Grand Forks, ND

Home | Current Version | Previous Version | Text Only | Print | Product List | Glossary On
Versions: 1 2 3 4 5 6 7 8 9 10 11 12 13 14 15 16 17 18 19 20 21 22 23 24 25 26 27 28 29 30 31 32 33 34 35 36 37 38 39 40 41 42 43 44 45 46 47 48 49 50
000
FPUS83 KFGF 042231
OPUFGF
PRAIRIE TO PINES WEATHER ROUNDUP
NATIONAL WEATHER SERVICE EASTERN NORTH DAKOTA/GRAND FORKS ND
500 PM CDT SAT JUL 04 2015

 **SATELLITE DATA USED TO AUGMENT SKY COVER AT AUTOMATED STATIONS**
 *****  WEATHER ACROSS EASTERN NORTH DAKOTA  *****

CITY           SKY/WX    TMP DP  RH WIND       PRES   REMARKS
GRAND FORKS    MOSUNNY   85  66  53 S16G24    29.74F
GRAND FORKS AF SUNNY     85  67  55 S16       29.75F
GRAND CITY NWS   N/A     84 N/A N/A S18         N/A
BUXTON         NOT AVBL
DEVILS LAKE    SUNNY     88  64  45 S16       29.71F
FARGO          MOSUNNY   84  67  56 S17G24    29.79F
WAHPETON ARPT  CLEAR     82  61  47 S13       29.81F
$$

 *****  WEATHER ACROSS CENTRAL AND WESTERN NORTH DAKOTA  *****

CITY           SKY/WX    TMP DP  RH WIND       PRES   REMARKS
JAMESTOWN      SUNNY     86  66  51 S16       29.76F
BISMARCK       MOSUNNY   89  71  55 S13       29.73F HX  95
MINOT          SUNNY     85  66  53 S14G25    29.68F
MINOT AFB      MOSUNNY   86  74  66 S8        29.67F HX  94
GARRISON         N/A     86  69  56 S12       29.71F HX  90
WILLISTON      LGT RAIN  72  64  76 MISG      29.72R
DICKINSON      PTSUNNY   85  67  54 S9        29.73F
HETTINGER      SUNNY     88  60  38 CALM      29.78F
$$

 *****  OTHER OBSERVATIONS NORTHEAST NORTH DAKOTA  *****

CITY           SKY/WX    TMP DP  RH WIND       PRES   REMARKS
WALHALLA       FAIR      86  68  54 MISG      29.67F
LANGDON        FAIR      86  66  51 S17       29.73F
CAVALIER       FAIR      86  66  51 S18       29.69F HAZE
GRAFTON        FAIR      86  68  54 S16       29.73F HAZE
CANDO          FAIR      84  64  51 S15       29.72S
FORT TOTTEN      N/A     87  63  44 S9        29.95S
ROLLA            N/A     81  64  57 SW15      29.73R
RUGBY          NOT AVBL
 ***** THE ABOVE OBSERVATIONS ARE NON NWS ARE NOT QUALITY
        CONTROLLED AND MAY MIS-REPORT RAIN FOR SNOW...
$$

 *****  OTHER OBSERVATIONS SOUTHEAST NORTH DAKOTA *****

CITY           SKY/WX    TMP DP  RH WIND       PRES   REMARKS
COOPERSTOWN    NOT AVBL
VALLEY CITY    FAIR      84  66  54 S14       29.77F
OAKES            N/A     84  72  65 S12G17    29.78F
GWINNER        FAIR      88  66  48 SE14      29.79F HX  90
SHEYENNE NWR     N/A     86  69  56 S13       29.95S HX  90
BUFFALO        NOT AVBL
WYNDMERE       NOT AVBL
 ***** THE ABOVE OBSERVATIONS ARE NON NWS ARE NOT QUALITY
       CONTROLLED AND MAY MIS-REPORT RAIN FOR SNOW...
$$

  *****  WEATHER ACROSS NORTHERN MINNESOTA  *****

CITY           SKY/WX    TMP DP  RH WIND       PRES   REMARKS
FLAG ISLAND    MOSUNNY   75  66  73 S16       29.76F
WARROAD        SUNNY     82  66  57 S7        29.78F HAZE
ROSEAU         SUNNY     82  70  65 S14G20    29.77F HAZE
HALLOCK        SUNNY     84  68  58 S14G23    29.71F HAZE
THF RVR FALLS  MOSUNNY   82  64  54 S15G21    29.79F
HALSTAD        NOT AVBL
FOSSTON        MOSUNNY   81  66  61 S13       29.83F HAZE
BAUDETTE       SUNNY     80  61  52 S14       29.82F HAZE
WASKISH        SUNNY     81  63  54 S7        29.84F
CROOKSTON      SUNNY     84  66  54 S16       29.78F
$$
  *****  WEATHER ACROSS CENTRAL AND WEST MINNESOTA  *****

CITY           SKY/WX    TMP DP  RH WIND       PRES   REMARKS
BEMIDJI        MOSUNNY   81  63  53 S13       29.85F HAZE
PARK RAPIDS    CLOUDY    83  63  50 S13       29.87F HAZE
WADENA         MOSUNNY   82  64  54 S12G22    29.87S HAZE
DETROIT LAKES  SUNNY     81  64  57 S15       29.85F
MOORHEAD       SUNNY     82  66  57 S17       29.80F
FERGUS FALLS   SUNNY     82  66  57 S15       29.83F
ELBOW LAKE     FAIR      82  65  57 S14G22    29.86S
MORRIS MN      SUNNY     84  63  48 S15       29.86S
STAPLES        MOSUNNY   82  63  51 S13       29.87F HAZE
WHEATON        SUNNY     81  64  57 SE15      29.84F
$$
  *****  WEATHER ELSEWHERE ACROSS MINNESOTA  *****

CITY           SKY/WX    TMP DP  RH WIND       PRES   REMARKS
DULUTH         SUNNY     73  58  59 SE12      29.94F
INTRNTL FALLS  SUNNY     80  58  46 SW9G18    29.85F
ELY            MOSUNNY   79  55  44 S13       29.91F
CLOQUET        SUNNY     73  59  60 SE6       29.93F
BRAINERD       CLOUDY    83  60  45 S8        29.89F HAZE
HIBBING        SUNNY     80  57  45 SE13      29.90F
ALEXANDRIA     SUNNY     82  65  56 S14       29.90F
SAINT CLOUD    SUNNY     84  65  52 SE8       29.89F HAZE
MINNEAPOLIS    MOSUNNY   84  62  47 S10       29.91F HAZE
$$

  *****  WEATHER ACROSS SOUTH DAKOTA  *****

CITY           SKY/WX    TMP DP  RH WIND       PRES   REMARKS
SIOUX FALLS    CLOUDY    82  66  58 S15G22    29.90F
BROOKINGS      SUNNY     81  64  57 S15       29.90F
WATERTOWN      MOSUNNY   83  65  54 S15G22    29.87F
HURON          SUNNY     83  64  52 S16G24    29.82F
SISSETON         N/A     86  65  49 S14       29.81F
ABERDEEN       SUNNY     87  67  51 S16G22    29.79F HX  90
MITCHELL       MOSUNNY   84  65  52 S14G26    29.86S
PIERRE         SUNNY     90  68  48 S18       29.74F HX  94
MOBRIDGE       MOSUNNY   90  71  53 SE18      29.73F HX  96
RAPID CITY     SUNNY     89  66  46 S5        29.83S HX  91
$$

  *****  SOME WEATHER IN NEARBY STATES *****

CITY           SKY/WX    TMP DP  RH WIND       PRES   REMARKS
GLASGOW MT     SUNNY     90  60  36 N20G29    29.72R
GREAT FALLS MT SUNNY     88  49  25 VRB7      29.84F
CHEYENNE WY    MOSUNNY   89  46  22 N8        30.02F
SCOTTSBLUFF NE SUNNY     97  50  20 S13G20    29.84F HX  94
OMAHA NE       PTSUNNY   81  61  50 S7        29.95F
DES MOINES IA  PTSUNNY   82  58  43 S8        29.96F
DAVENPORT IA   SUNNY     78  59  51 CALM      30.00F
CHICAGO IL     MOSUNNY   80  55  42 W7        29.99S
EAU CLAIRE WI  PTSUNNY   83  64  52 SW7       29.93F HAZE
LA CROSSE WI   MOSUNNY   83  63  50 SW13      29.95S
$$

  *****  SOME NATIONAL WEATHER *****

CITY           SKY/WX    TMP DP  RH WIND       PRES   REMARKS
LA GUARDIA NY  PTSUNNY   75  49  39 NE8       29.94S
RALEIGH NC     PTSUNNY   84  69  60 SW15      29.97R
ATLANTA GA     PTSUNNY   83  69  62 SW8       30.05F
NEW ORLEANS LA CLOUDY    84  71  65 NW8       30.06R
OKLAHOMA CITY  PTSUNNY   84  73  69 S5        29.93S HX  90
ALBUQUERQUE NM CLOUDY    77  60  55 W10       30.07S THUNDER
SALT LAKE CITY PTSUNNY   97  51  21 NW8       29.86F HX  94
LOS ANGELES CA MOSUNNY   70  60  70 SW15      29.90F
BOISE ID       CLOUDY    97  40  14 NW12      29.80F HX  92
SEATTLE WA     MOSUNNY   90  44  20 NW9       29.84F
$$

*** WEATHER ACROSS MANITOBA...SASKATCHEWAN AND ONTARIO ***
                ***ONTARIO***

CITY           SKY/WX    TMP DP  RH WIND       PRES   REMARKS
GERALDTON      CLOUDY    72  52  49 S2        29.95S
THUNDER BAY    CLOUDY    72  57  60 S10       29.96S
SIOUX LOOKOUT  CLOUDY    77  57  50 S8        29.86S
TORONTO        MOSUNNY   75  52  43 SE8       29.95R
BIG TROUT LK   MOSUNNY   73  57  56 SE12G17   29.70F
PICKLE LAKE    CLOUDY    77  54  44 SW13G23   29.83S
DRYDEN         SUNNY     79  55  44 S12G17    29.85S
KENORA         MOSUNNY   79  61  53 S16G24    29.80F SMOKE
$$
                *** MANITOBA***

CITY           SKY/WX    TMP DP  RH WIND       PRES   REMARKS
BRANDON        TSTM      77  66  69 SW10G20   29.67R SMOKE
DAUPHIN        MOSUNNY   70  64  83 W14G22    29.70R
ISLAND LAKE    LGT RAIN  70  66  88 W2        29.65F
PILOT MOUND      N/A     82  68  61 S18G24      N/A
THE PAS          N/A     72  54  53 W14G20    29.73R SMOKE
THOMPSON       CLOUDY    70  59  68 W8        29.60S SMOKE
WINNIPEG       CLOUDY    82  70  65 S22G32    29.64F SMOKE
LYNN LAKE      MOSUNNY   64  55  72 N15       29.67R
CHURCHILL      DRIZZLE   43  41  93 E20G29    29.72F FOG
GILLAM         CLOUDY    68  64  88 S3        29.57S SMOKE
$$
                ***SASKATCHEWAN***

CITY           SKY/WX    TMP DP  RH WIND       PRES   REMARKS
ESTEVAN        PTSUNNY   79  66  65 N21       29.71F SMOKE
KINDERSLEY     MOSUNNY   77  52  41 NW8G17    29.88R
LLOYDMINSTER   PTSUNNY   73  43  33 W17G28    29.88S
PRINCE ALBERT  SMOKE     68  50  52 N5        29.82S VSB 5/8
REGINA         MOSUNNY   75  61  60 N14       29.80S


USA.gov is the U.S. government's official web portal to all federal, state and local government web resources and services.